EW5297 Weather Reports


Display with metric or nautical units.
time (UTC)temp
F
wind
direction
speed
MPH
gust
MPH
rain 1hr
in
rain 24hr
in
rain mn
in
humidity
%
barometer
mb
20260507073311 56 324 0.0 2.0 0.00 0.00 0.00 86
20260507071828 57 329 0.0 2.0 0.00 0.00 0.00 84
20260507070330 58 327 1.0 1.0 0.00 0.00 0.00 82
20260507064827 59 321 1.0 2.0 0.00 0.00 0.00 80
20260507063322 61 321 1.0 2.0 0.00 0.00 0.00 76
20260507061824 64 330 1.0 3.0 0.00 0.00 0.00 73
20260507060322 66 325 0.0 3.0 0.00 0.00 0.00 72
20260507054824 68 226 0.0 2.0 0.00 0.00 0.00 75
20260507053321 68 226 0.0 2.0 0.00 0.00 0.00 73
20260507051840 68 226 0.0 2.0 0.00 0.00 0.00 67
20260507050342 68 153 1.0 2.0 0.00 0.00 0.00 68
20260507044818 69 161 1.0 2.0 0.00 0.00 0.00 69
20260507043315 69 96 0.0 0.0 0.00 0.00 0.00 73
20260507041816 68 96 0.0 0.0 0.00 0.00 0.00 75
20260507040315 68 92 0.0 0.0 0.00 0.00 0.00 72
20260507034815 67 338 0.0 0.0 0.00 0.00 0.00 77
20260507033313 67 338 0.0 0.0 0.00 0.00 0.00 78
20260507031811 66 346 1.0 3.0 0.00 0.00 0.00 74
20260507030313 67 332 1.0 2.0 0.00 0.00 0.00 80
20260507024811 68 332 0.0 1.0 0.00 0.00 0.00 77
20260507023327 70 332 1.0 3.0 0.00 0.00 0.00 74
20260507021827 69 308 1.0 2.0 0.00 0.00 0.00 69
20260507020324 69 308 0.0 2.0 0.00 0.00 0.00 69
20260507014824 70 5 1.0 10.0 0.00 0.00 0.00 50
20260507013321 70 340 0.0 4.0 0.00 0.00 0.00 54
20260507011820 69 5 1.0 3.0 0.00 0.00 0.00 55
20260507010321 69 34 1.0 2.0 0.00 0.00 0.00 57
20260507004819 68 262 1.0 2.0 0.00 0.00 0.00 66
20260507003320 68 173 1.0 3.0 0.00 0.00 0.00 59
20260507001838 68 130 0.0 3.0 0.00 0.00 0.00 73
20260507000314 67 137 1.0 2.0 0.00 0.00 0.00 74
20260506234816 66 216 0.0 4.0 0.00 0.04 0.00 71
20260506233313 65 140 0.0 2.0 0.00 0.04 0.00 75
20260506231831 64 46 0.0 2.0 0.00 0.04 0.00 78
20260506230330 63 152 1.0 2.0 0.00 0.04 0.00 85 798.8
20260506224825 62 139 0.0 2.0 0.00 0.04 0.00 91
20260506223326 61 157 0.0 2.0 0.00 0.04 0.00 91 943.1
20260506221824 61 151 0.0 1.0 0.00 0.04 0.00 91
20260506220322 60 151 1.0 3.0 0.00 0.04 0.00 91
20260506214822 60 151 1.0 3.0 0.00 0.04 0.00 91 721.5
20260506213319 60 157 2.0 3.0 0.00 0.04 0.00 91 721.5
20260506211816 60 148 1.0 2.0 0.00 0.04 0.00 91 721.5
20260506210318 60 236 0.0 2.0 0.00 0.04 0.00 90 721.5
20260506204817 60 150 1.0 2.0 0.00 0.04 0.00 90 721.5
20260506203317 60 63 0.0 0.0 0.00 0.04 0.00 89 721.5
20260506200322 61 144 0.0 3.0 0.00 0.04 0.00 88 721.5
20260506194823 62 182 1.0 6.0 0.00 0.08 0.00 87 721.5
20260506193343 63 85 1.0 5.0 0.00 0.08 0.00 86 721.5
20260506191818 63 355 1.0 6.0 0.00 0.08 0.00 86 721.5
20260506190319 63 325 4.0 10.0 0.00 0.08 0.00 87 721.5
20260506184818 63 36 2.0 12.0 0.00 0.12 0.00 88 721.5
20260506183320 63 323 2.0 8.0 0.00 0.12 0.00 90 721.5
20260506181817 62 327 2.0 7.0 0.00 0.12 0.00 91 721.5
20260506180314 62 326 2.0 9.0 0.00 0.12 0.00 93 721.5
20260506174816 61 328 2.0 9.0 0.00 0.20 0.00 93 721.5
20260506173312 61 331 2.0 5.0 0.00 0.20 0.00 94 721.5
20260506171810 60 176 2.0 8.0 0.00 0.20 0.00 93 721.5
20260506170312 59 54 0.0 2.0 0.00 0.20 0.00 93 721.5
20260506164847 59 10 0.0 1.0 0.00 0.20 0.00 93 721.5
20260506163328 59 116 0.0 0.0 0.00 0.20 0.00 93 721.5
20260506161826 60 154 0.0 2.0 0.00 0.20 0.00 93 721.5
20260506160346 60 161 1.0 2.0 0.00 0.20 0.00 93 721.5
20260506154826 60 198 0.0 0.0 0.00 0.20 0.00 93 721.5
20260506153322 59 261 0.0 0.0 0.00 0.20 0.00 93 721.5
20260506151820 59 178 0.0 0.0 0.00 0.20 0.00 93 721.5
20260506150343 59 167 0.0 0.0 0.00 0.20 0.00 93 721.5
20260506144820 59 150 0.0 0.0 0.00 0.20 0.00 93 837.9
20260506143318 60 153 1.0 2.0 0.00 0.20 0.00 93
20260506141815 60 19 0.0 0.0 0.00 0.20 0.00 93
20260506140331 59 19 0.0 0.0 0.00 0.20 0.00 93 600.7
20260506134812 60 19 0.0 0.0 0.00 0.20 0.00 93
20260506133310 60 19 0.0 0.0 0.00 0.20 0.00 93
20260506131812 59 19 0.0 0.0 0.00 0.20 0.00 93
20260506130309 60 19 0.0 0.0 0.00 0.20 0.00 93
20260506124827 60 19 0.0 0.0 0.00 0.28 0.04 93
20260506123349 60 19 0.0 0.0 0.00 0.28 0.04 93 334.6
20260506121849 60 19 0.0 0.0 0.00 0.28 0.04 93 457.3
20260506120346 60 19 0.0 0.0 0.00 0.28 0.04 93 457.3
20260506114826 60 19 0.0 0.0 0.00 0.47 0.04 92 457.3
20260506113323 60 19 0.0 1.0 0.00 0.47 0.04 92 457.3
20260506111824 60 19 0.0 0.0 0.00 0.47 0.04 92 457.3
20260506110322 60 19 0.0 1.0 0.00 0.47 0.04 92 457.3
20260506104820 60 19 0.0 0.0 0.00 0.55 0.04 92 457.3
20260506103319 60 19 0.0 0.0 0.00 0.55 0.04 92 457.3
20260506101815 61 140 0.0 2.0 0.00 0.55 0.04 92 457.3
20260506100313 61 140 0.0 2.0 0.00 0.55 0.04 92 457.3
20260506094815 61 140 0.0 2.0 0.00 0.63 0.04 92 457.3
20260506093330 62 331 0.0 0.0 0.00 0.63 0.04 91 457.3
20260506091829 62 331 0.0 0.0 0.00 0.63 0.04 91 457.3
20260506090327 62 331 0.0 0.0 0.00 0.63 0.04 91 457.3
20260506084824 62 331 0.0 0.0 0.00 0.79 0.04 91 457.3
20260506083328 62 331 0.0 0.0 0.00 0.79 0.04 91 457.3
20260506081826 62 331 0.0 0.0 0.00 0.79 0.04 91 457.3
20260506080342 62 94 0.0 0.0 0.00 0.79 0.04 91 457.3